Rolla, ND

4:11 AM CST on January 23, 2018 (GMT -0600)
Rolla

Weather History for K06D - May, 2013

Change the Weather History Date:

Thursday, May 23, 2013

  Actual Average (KRUG) Record (KRUG)
Temperature  
Mean Temperature 48 °F -  
Max Temperature 60 °F 73 °F 98 °F (1980)
Min Temperature 37 °F 46 °F 29 °F (1949)
Degree Days  
Heating Degree Days 16    
Moisture  
Dew Point 37 °F    
Average Humidity 64    
Maximum Humidity 100    
Minimum Humidity 34    
Precipitation  
Precipitation 0.00 in - - ()
Sea Level Pressure  
Sea Level Pressure 30.31 in    
Wind  
Wind Speed 11 mph (East)    
Max Wind Speed 16 mph    
Max Gust Speed 23 mph    
Visibility 10 miles    
Events      
Averages and records for this station are not official NWS values.
T = Trace of Precipitation, MM = Missing Value Source: NWS Daily Summary

Daily Weather History Graph

Daily Weather History Graph

Search for Another Location

Airport or City:

Trip Planner

Search our weather history database for the weather conditions in past years. The results will help you decide how hot, cold, wet, or windy it might be!

Date:

Astronomy

May. 23, 2013 Rise Set
Actual Time 5:46 AM CDT 9:24 PM CDT
Civil Twilight 5:07 AM CDT 10:04 PM CDT
Nautical Twilight 4:14 AM CDT 10:57 PM CDT
Astronomical Twilight 2:59 AM CDT 12:13 AM CDT
Moon 7:52 PM CDT 4:42 AM CDT
Length of Visible Light 16h 56m
Length of Day
15h 37m
Waxing Gibbous, 97% of the Moon is Illuminated
May 23
Waxing Gibbous
May 24
Full
May 31
Last Quarter
Jun 8
New
Jun 16
First Quarter

Hourly Weather History & Observations

Time (CDT) Temp. Windchill Dew Point Humidity Pressure Visibility Wind Dir Wind Speed Gust Speed Precip Events Conditions
12:15 AM 46.4 °F 41.5 °F 42.8 °F 87% 30.26 in 10.0 mi North 10.4 mph - N/A   Clear
12:35 AM 46.4 °F 41.5 °F 42.8 °F 87% 30.27 in 10.0 mi North 10.4 mph - N/A   Clear
12:55 AM 44.6 °F 39.2 °F 42.8 °F 93% 30.27 in 10.0 mi North 10.4 mph - N/A   Clear
1:15 AM 44.6 °F 38.8 °F 42.8 °F 93% 30.27 in 10.0 mi North 11.5 mph - N/A   Clear
1:35 AM 44.6 °F 39.7 °F 42.8 °F 93% 30.28 in 10.0 mi NNW 9.2 mph - N/A   Clear
1:55 AM 42.8 °F 36.6 °F 42.8 °F 100% 30.28 in 10.0 mi NNW 11.5 mph - N/A   Clear
2:15 AM 42.8 °F 37.0 °F 41.0 °F 93% 30.28 in 10.0 mi North 10.4 mph - N/A   Clear
2:35 AM 41.0 °F 34.7 °F 41.0 °F 100% 30.29 in 10.0 mi North 10.4 mph - N/A   Clear
2:55 AM 41.0 °F 35.2 °F 41.0 °F 100% 30.29 in 10.0 mi North 9.2 mph - N/A   Clear
3:15 AM 41.0 °F 35.2 °F 41.0 °F 100% 30.29 in 10.0 mi NNW 9.2 mph - N/A   Clear
3:35 AM 41.0 °F 35.8 °F 41.0 °F 100% 30.30 in 10.0 mi North 8.1 mph - N/A   Clear
3:55 AM 39.2 °F 33.6 °F 39.2 °F 100% 30.30 in 10.0 mi North 8.1 mph - N/A   Clear
4:15 AM 39.2 °F 33.0 °F 39.2 °F 100% 30.30 in 10.0 mi North 9.2 mph - N/A   Clear
4:35 AM 39.2 °F 33.6 °F 39.2 °F 100% 30.31 in 10.0 mi North 8.1 mph - N/A   Clear
4:55 AM 39.2 °F 33.6 °F 39.2 °F 100% 30.31 in 10.0 mi North 8.1 mph - N/A   Clear
5:15 AM 39.2 °F 33.6 °F 39.2 °F 100% 30.32 in 10.0 mi North 8.1 mph - N/A   Clear
5:35 AM 39.2 °F 33.0 °F 39.2 °F 100% 30.32 in 10.0 mi North 9.2 mph - N/A   Clear
5:55 AM 37.4 °F 31.4 °F 37.4 °F 100% 30.32 in 10.0 mi North 8.1 mph - N/A   Clear
6:15 AM 37.4 °F 32.1 °F 37.4 °F 100% 30.33 in 10.0 mi North 6.9 mph - N/A   Clear
6:35 AM 39.2 °F 34.2 °F 39.2 °F 100% 30.34 in 10.0 mi North 6.9 mph - N/A   Clear
6:55 AM 39.2 °F 35.0 °F 37.4 °F 93% 30.34 in 10.0 mi NNE 5.8 mph - N/A   Clear
7:15 AM 41.0 °F 36.4 °F 39.2 °F 93% 30.34 in 10.0 mi NE 6.9 mph - N/A   Clear
7:35 AM 42.8 °F 38.6 °F 37.4 °F 81% 30.35 in 10.0 mi ENE 6.9 mph - N/A   Clear
7:55 AM 44.6 °F 39.2 °F 37.4 °F 76% 30.35 in 10.0 mi East 10.4 mph - N/A   Clear
8:15 AM 46.4 °F 41.9 °F 37.4 °F 71% 30.35 in 10.0 mi East 9.2 mph - N/A   Clear
8:35 AM 46.4 °F 41.9 °F 39.2 °F 76% 30.36 in 10.0 mi East 9.2 mph - N/A   Clear
8:55 AM 48.2 °F - 37.4 °F 66% 30.36 in 10.0 mi ESE 13.8 mph - N/A   Clear
9:15 AM 50.0 °F - 37.4 °F 62% 30.36 in 10.0 mi ESE 12.7 mph - N/A   Clear
9:35 AM 50.0 °F - 37.4 °F 62% 30.36 in 10.0 mi ESE 10.4 mph - N/A   Clear
9:55 AM 51.8 °F - 37.4 °F 58% 30.36 in 10.0 mi ESE 9.2 mph - N/A   Clear
10:15 AM 51.8 °F - 39.2 °F 62% 30.36 in 10.0 mi ESE 9.2 mph - N/A   Clear
10:35 AM 53.6 °F - 39.2 °F 58% 30.36 in 10.0 mi ESE 11.5 mph - N/A   Clear
10:55 AM 55.4 °F - 39.2 °F 54% 30.36 in 10.0 mi SE 11.5 mph - N/A   Clear
11:15 AM 55.4 °F - 37.4 °F 51% 30.36 in 10.0 mi East 10.4 mph - N/A   Clear
11:35 AM 55.4 °F - 37.4 °F 51% 30.35 in 10.0 mi ESE 10.4 mph 18.4 mph N/A   Clear
11:55 AM 57.2 °F - 35.6 °F 44% 30.35 in 10.0 mi ESE 13.8 mph 18.4 mph N/A   Clear
12:15 PM 57.2 °F - 37.4 °F 48% 30.35 in 10.0 mi East 13.8 mph - N/A   Clear
12:35 PM 57.2 °F - 35.6 °F 44% 30.35 in 10.0 mi East 13.8 mph 17.3 mph N/A   Clear
12:55 PM 57.2 °F - 35.6 °F 44% 30.35 in 10.0 mi East 12.7 mph 18.4 mph N/A   Clear
1:15 PM 57.2 °F - 35.6 °F 44% 30.34 in 10.0 mi ESE 15.0 mph 19.6 mph N/A   Clear
1:35 PM 59.0 °F - 35.6 °F 42% 30.34 in 10.0 mi SE 12.7 mph 21.9 mph N/A   Clear
1:55 PM 59.0 °F - 35.6 °F 42% 30.34 in 10.0 mi ESE 11.5 mph 19.6 mph N/A   Clear
2:15 PM 59.0 °F - 33.8 °F 39% 30.33 in 10.0 mi ESE 12.7 mph 18.4 mph N/A   Clear
2:35 PM 59.0 °F - 32.0 °F 36% 30.33 in 10.0 mi SE 15.0 mph 20.7 mph N/A   Clear
2:55 PM 59.0 °F - 35.6 °F 42% 30.32 in 10.0 mi ESE 16.1 mph 21.9 mph N/A   Clear
3:15 PM 59.0 °F - 33.8 °F 39% 30.32 in 10.0 mi ESE 13.8 mph 23.0 mph N/A   Clear
3:35 PM 59.0 °F - 33.8 °F 39% 30.32 in 10.0 mi ESE 16.1 mph 20.7 mph N/A   Clear
3:55 PM 60.8 °F - 32.0 °F 34% 30.31 in 10.0 mi ESE 15.0 mph 19.6 mph N/A   Clear
4:15 PM 60.8 °F - 32.0 °F 34% 30.31 in 10.0 mi SSE 11.5 mph 21.9 mph N/A   Clear
4:35 PM 60.8 °F - 33.8 °F 36% 30.30 in 10.0 mi ESE 11.5 mph 19.6 mph N/A   Clear
4:55 PM 60.8 °F - 32.0 °F 34% 30.30 in 10.0 mi SE 13.8 mph 20.7 mph N/A   Clear
5:15 PM 60.8 °F - 32.0 °F 34% 30.29 in 10.0 mi ESE 16.1 mph 21.9 mph N/A   Clear
5:35 PM 60.8 °F - 32.0 °F 34% 30.28 in 10.0 mi ESE 11.5 mph - N/A   Clear
5:55 PM 60.8 °F - 32.0 °F 34% 30.28 in 10.0 mi ESE 15.0 mph 18.4 mph N/A   Clear
6:15 PM 60.8 °F - 32.0 °F 34% 30.28 in 10.0 mi SE 13.8 mph 20.7 mph N/A   Clear
6:35 PM 59.0 °F - 32.0 °F 36% 30.27 in 10.0 mi SE 12.7 mph - N/A   Clear
6:55 PM 59.0 °F - 35.6 °F 42% 30.27 in 10.0 mi ESE 12.7 mph 19.6 mph N/A   Clear
7:15 PM 59.0 °F - 33.8 °F 39% 30.27 in 10.0 mi SE 16.1 mph 20.7 mph N/A   Clear
7:35 PM 59.0 °F - 32.0 °F 36% 30.26 in 10.0 mi SE 15.0 mph - N/A   Clear
7:55 PM 59.0 °F - 32.0 °F 36% 30.27 in 10.0 mi SE 15.0 mph - N/A   Clear
8:15 PM 57.2 °F - 32.0 °F 38% 30.26 in 10.0 mi SE 12.7 mph 18.4 mph N/A   Clear
8:35 PM 57.2 °F - 32.0 °F 38% 30.27 in 10.0 mi SE 12.7 mph - N/A   Clear
8:55 PM 55.4 °F - 33.8 °F 44% 30.27 in 10.0 mi SE 10.4 mph - N/A   Clear
9:15 PM 53.6 °F - 35.6 °F 51% 30.27 in 10.0 mi SE 9.2 mph - N/A   Clear
9:35 PM 53.6 °F - 35.6 °F 51% 30.27 in 10.0 mi SE 8.1 mph - N/A   Clear
9:55 PM 50.0 °F - 37.4 °F 62% 30.27 in 10.0 mi ESE 9.2 mph - N/A   Clear
10:15 PM 50.0 °F - 37.4 °F 62% 30.27 in 10.0 mi ESE 10.4 mph - N/A   Clear
10:35 PM 48.2 °F - 37.4 °F 66% 30.27 in 10.0 mi ESE 10.4 mph - N/A   Clear
10:55 PM 48.2 °F - 37.4 °F 66% 30.27 in 10.0 mi ESE 9.2 mph - N/A   Clear
11:15 PM 48.2 °F - 37.4 °F 66% 30.27 in 10.0 mi ESE 9.2 mph - N/A   Clear
11:35 PM 48.2 °F - 37.4 °F 66% 30.26 in 10.0 mi ESE 10.4 mph - N/A   Clear
11:55 PM 46.4 °F 41.9 °F 37.4 °F 71% 30.26 in 10.0 mi ESE 9.2 mph - N/A   Clear